Probability
0 0 0 0 0 0 0 0 0 0 0 0 0 0 0 0 0 0 0 0 0 0 0 0 0 0 0 0 0 0 0 0 0 0 0 0 0 0 0 0 0 0 0 0
0 0 0 0 0 0 0 0 0 0 0 0 0 0 0 0 0 0 0 0 0 0 0 0 0 0 0 0 0 0 0 0 0 0 0 0 0 0 0 0 0 0 0 0
0 0 0 0 0 0 0 0 0 0 0 0 0 0 0 0 0 0 0 0 0 0 0 0 0 0 0 0 0 0 0 0 0 0 0 0 0 0 0 0 0 0 0 0
0 0 0 0 0 0 0 0 0 0 0 0 0 0 0 0 0 0 0 0 0 0 0 0 0 0 0 0 0 0 0 0 0 0 0 0 0 0 0 0 0 0 0 0
0 0 0 0 0 0 0 0 0 0 0 0 0 0 0 0 0 0 0 0 0 0 0 0 0 0 0 0 0 0 0 0 0 0 0 0 0 0 0 0 0 0 0 0
0 0 0 0 0 0 0 0 0 0 0 0 0 0 0 0 0 0 0 0 0 0 0 0 0 0 0 0 0 0 0 0 0 0 0 0 0 0 0 0 0 0 0 0
0 0 0 0 0 0 0 0 0 0 0 0 0 0 0 0 0 0 0 0 0 0 0 0 0 0 0 0 0 0 0 0 0 0 0 0 0 0 0 0 0 0 0 0
0 0 0 0 0 0 0 0 0 0 0 0 0 0 0 0 0 0 0 0 0 0 0 0 0 0 0 0 0 0 0 0 0 0 0 0 0 0 0 0 0 0 0 0
0 0 0 0 0 0 0 0 0 0 0 0 0 0 0 0 0 0 0 0 0 0 0 0 0 0 0 0 0 0 0 0 0 0 0 0 0 0 0 0 0 0 0 0
0 0 0 0 0 0 0 0 0 0 0 0 0 0 0 0 0 0 0 0 0 0 0 0 0 0 0 0 0 0 0 0 0 0 0 0 0 0 0 0 0 0 0 0
0 0 0 0 0 0 0 0 0 0 0 0 0 0 0 0 0 0 0 0 0 0 0 0 0 0 0 0 0 0 0 0 0 0 0 0 0 0 0 0 0 0 0 0
0 0 0 0 0 0 0 0 0 0 0 0 0 0 0 0 0 0 0 0 0 0 0 0 0 0 0 0 0 0 0 0 0 0 0 0 0 0 0 0 0 0 0 0
0 0 0 0 0 0 0 0 0 0 0 0 0 0 0 0 0 0 0 0 0 0 0 0 0 0 0 0 0 0 0 0 0 0 0 0 0 0 0 0 0 0 0 0
0 0 0 0 0 0 0 0 0 0 0 0 0 0 0 0 0 0 0 0 0 0 0 0 0 0 0 0 0 0 0 0 0 0 0 0 0 0 0 0 0 0 0 0
0 0 0 0 0 0 0 0 0 0 0 0 0 0 0 0 0 0 0 0 0 0 0 0 0 0 0 0 0 0 0 0 0 0 0 0 0 0 0 0 0 0 0 0
0 0 0 0 0 0 0 0 0 0 0 0 0 0 0 0 0 0 0 0 0 0 0 0 0 0 0 0 0 0 0 0 0 0 0 0 0 0 0 0 0 0 0 0
0 0 0 0 0 0 0 0 0 0 0 0 0 0 0 0 0 0 0 0 0 0 0 0 0 0 0 0 0 0 0 0 0 0 0 0 0 0 0 0 0 0 0 0
0 0 0 0 0 0 0 0 0 0 0 0 0 0 0 0 0 0 0 0 0 0 0 0 0 0 0 0 0 0 0 0 0 0 0 0 0 0 0 0 0 0 0 0
0 0 0 0 0 0 0 0 0 0 0 0 0 0 0 0 0 0 0 0 0 0 0 0 0 0 0 0 0 0 0 0 0 0 0 0 0 0 0 0 0 0 0 0
0 0 0 0 0 0 0 0 0 0 0 0 0 0 0 0 0 0 0 0 0 0 0 0 0 0 0 0 0 0 0 0 0 0 0 0 0 0 0 0 0 0 0 0
0 0 0 0 0 0 0 0 0 0 0 0 0 0 0 0 0 0 0 0 0 0 0 0 0 0 0 0 0 0 0 0 0 0 0 0 0 0 0 0 0 0 0 0
0 0 0 0 0 0 0 0 0 0 0 0 0 0 0 0 0 0 0 0 0 0 0 0 0 0 0 0 0 0 0 0 0 0 0 0 0 0 0 0 0 0 0 0
0 0 0 0 0 0 0 0 0 0 0 0 0 0 0 0 0 0 0 0 0 0 0 0 0 0 0 0 0 0 0 0 0 0 0 0 0 0 0 0 0 0 0 0
0 0 0 0 0 0 0 0 0 0 0 0 0 0 0 0 0 0 0 0 0 0 0 0 0 0 0 0 0 0 0 0 0 0 0 0 0 0 0 0 0 0 0 0
0 0 0 0 0 0 0 0 0 0 0 0 0 0 0 0 0 0 0 0 0 0 0 0 0 0 0 0 0 0 0 0 0 0 0 0 0 0 0 0 0 0 0 0
0 0 0 0 0 0 0 0 0 0 0 0 0 0 0 0 0 0 0 0 0 0 0 0 0 0 0 0 0 0 0 0 0 0 0 0 0 0 0 0 0 0 0 0
0 0 0 0 0 0 0 0 0 0 0 0 0 0 0 0 0 0 0 0 0 0 0 0 0 0 0 0 0 0 0 0 0 0 0 0 0 0 0 0 0 0 0 0
Wind_Speed
2 2 1 3 3 3 4 5 6 6 6 9 6 5 4 4 3 3 3 2 2 2 2 2 2 2 2 2 3 3 3 3 3 3 3 3 3 4 4 4 4 4 4 5
3 3 2 4 6 5 6 5 6 6 9 8 4 3 3 4 4 4 4 4 3 3 2 2 2 2 2 2 2 2 2 3 3 4 4 4 4 4 4 5 5 5 5 5
3 5 5 7 8 7 5 6 7 9 9 3 2 4 5 5 4 5 5 4 3 3 3 2 2 1 1 1 1 2 2 3 3 4 4 4 4 4 5 5 5 5 5 5
1 4 3 8 1 5 5 5 7 7 5 4 5 4 4 4 5 5 4 4 4 3 2 2 1 1 1 1 1 1 2 3 3 3 3 4 4 4 5 4 4 4 5 5
2 1 9 10 4 5 5 6 7 8 7 5 3 1 4 4 5 5 5 4 3 3 2 1 1 1 0 1 1 2 2 3 3 3 3 3 4 4 4 4 4 4 4 4
4 2 7 6 2 3 3 6 5 7 7 5 3 2 5 3 3 3 3 2 2 2 1 1 1 0 1 0 1 2 2 3 2 2 2 3 3 3 3 3 3 4 4 4
4 5 12 8 3 4 4 7 4 6 6 6 7 7 3 1 2 3 3 2 2 2 2 2 1 1 1 1 2 3 2 2 2 2 2 2 3 3 3 3 3 3 4 4
6 5 12 6 8 9 10 2 3 4 5 6 6 4 3 2 2 2 2 2 2 2 2 1 1 1 1 2 3 2 1 1 2 2 2 2 2 3 2 2 3 3 3 4
12 11 5 7 9 7 4 4 4 4 5 5 5 5 4 4 3 3 3 3 3 3 2 1 1 2 3 3 2 1 1 1 2 2 2 2 2 2 2 2 2 3 3 4
7 11 8 8 8 6 5 6 5 5 4 5 6 6 5 4 4 4 3 3 3 3 3 2 2 2 3 2 1 1 1 2 2 1 2 2 2 2 2 2 2 3 3 4
8 9 6 8 11 11 8 6 5 5 5 6 6 6 6 5 5 4 4 3 3 4 4 4 2 2 2 1 1 1 1 1 2 2 2 2 2 2 3 3 3 3 3 3
12 10 8 7 6 8 8 8 8 7 6 5 6 7 6 5 4 4 4 3 3 4 4 4 3 3 2 1 2 2 2 2 2 2 2 2 2 3 4 4 6 7 7 6
9 5 6 6 4 5 7 7 7 7 7 6 5 5 5 4 4 3 4 4 5 5 5 4 3 4 3 2 2 3 3 3 2 2 2 2 2 2 3 4 5 6 7 8
8 4 6 7 7 5 5 5 4 3 4 4 4 3 3 4 3 4 5 6 5 4 4 4 4 5 3 3 3 4 3 3 3 2 2 2 2 2 2 3 4 4 6 8
11 11 10 5 4 4 3 3 3 4 4 4 4 4 5 5 6 6 5 3 3 3 4 4 4 5 3 3 4 4 3 3 2 2 2 2 2 2 2 3 3 4 4 5
7 6 7 7 8 7 5 6 7 7 6 6 5 6 6 5 5 4 3 4 4 5 5 5 6 5 3 4 4 3 3 4 3 2 2 2 2 3 3 3 3 4 4 4
8 9 9 9 11 10 9 9 9 8 7 7 7 6 4 4 3 4 4 5 5 6 5 6 6 4 4 5 5 4 3 3 4 3 3 3 3 3 3 3 3 4 4 5
13 12 10 10 9 9 9 8 8 8 8 7 6 5 6 6 7 7 5 3 3 4 5 6 5 4 4 5 5 4 3 3 3 4 3 3 3 3 3 3 4 4 4 5
10 10 9 9 9 8 7 7 8 7 6 6 6 7 7 7 6 5 4 4 5 7 6 5 5 4 5 5 5 3 3 3 3 3 3 3 3 3 3 4 4 4 4 3
8 7 7 7 6 6 7 6 6 6 6 6 7 6 6 6 5 5 5 6 7 6 3 4 4 4 5 5 5 3 4 4 4 3 3 3 4 4 4 4 4 4 4 4
7 7 7 7 6 5 6 6 6 6 6 7 8 8 7 6 5 5 5 6 6 4 4 4 4 4 4 4 5 4 4 4 4 4 4 4 4 4 4 4 4 4 4 4
6 6 7 6 6 5 4 4 5 6 5 6 6 6 5 5 5 4 6 5 3 3 3 3 3 4 4 4 4 4 4 4 4 4 4 4 4 4 4 4 4 4 4 4
4 5 5 5 5 4 2 3 4 5 6 6 6 6 6 5 4 5 5 4 3 4 3 3 4 5 5 4 3 4 4 4 4 4 4 4 4 4 4 5 4 4 4 4
3 3 4 3 4 4 3 3 3 3 3 3 4 5 4 3 3 4 3 3 4 4 3 4 5 5 4 3 3 4 4 4 4 4 4 4 4 4 4 4 4 4 4 5
3 3 4 5 4 4 3 3 3 2 2 2 2 3 3 3 3 3 2 3 4 3 2 3 4 4 3 3 4 4 4 4 4 4 4 4 4 4 4 4 4 4 4 4
3 3 3 3 3 3 3 3 3 2 2 2 2 2 2 1 2 1 1 2 3 3 2 2 2 3 3 3 3 4 3 3 3 4 4 4 4 4 4 4 5 5 4 4
2 2 2 1 1 2 3 3 3 3 3 3 2 2 1 1 1 1 1 1 1 1 1 1 2 2 2 2 3 3 3 3 3 3 3 4 4 4 4 5 4 4 4 4
Wind_Direction
278 290 263 245 254 230 206 204 205 230 242 260 253 238 234 227 224 226 235 239 241 249 263 287 310 325 346 350 351 359 9 10 356 351 354 355 357 0 0 360 359 353 356 357
329 332 313 286 265 238 234 228 224 249 269 260 255 226 225 223 217 225 236 242 246 250 253 260 280 307 336 342 343 353 2 353 346 355 358 359 357 2 2 3 3 0 1 357
295 325 358 292 247 204 206 212 195 220 238 240 237 230 226 224 223 228 233 237 237 239 240 243 251 278 290 310 341 3 3 356 357 1 3 2 2 7 1 0 4 2 0 359
13 21 272 249 229 184 205 241 218 230 240 230 237 244 242 223 215 229 231 232 236 236 235 237 242 277 293 358 8 1 359 354 354 357 1 1 4 1 355 356 359 356 355 355
112 275 281 290 249 186 193 268 223 219 239 245 252 300 279 237 213 219 218 220 224 218 207 203 234 267 32 12 4 355 341 338 341 346 352 355 353 348 347 350 350 349 348 351
132 176 245 251 192 159 110 284 235 197 219 218 157 238 264 235 207 217 212 209 202 175 149 176 253 207 128 300 333 312 308 315 332 339 339 338 333 334 343 341 340 343 346 348
171 222 260 250 182 131 170 242 201 189 205 193 197 218 235 198 201 209 204 197 170 155 172 211 210 151 177 266 276 285 303 320 332 331 325 320 324 332 338 337 340 340 336 334
162 201 253 206 152 189 215 212 179 192 199 202 217 231 233 226 218 205 198 191 170 173 202 215 158 161 216 264 284 313 318 318 320 323 321 326 326 328 334 333 333 329 330 326
192 214 238 184 200 215 192 200 209 201 206 200 213 226 229 228 221 213 202 198 190 189 202 217 197 189 225 266 305 321 313 298 304 321 326 325 317 316 324 327 321 317 321 318
243 255 247 236 240 243 217 217 220 212 210 201 215 226 227 226 222 218 212 205 199 191 204 233 238 230 240 269 299 220 249 279 300 310 318 326 315 305 302 302 299 301 304 306
248 264 280 257 231 230 227 223 227 227 215 210 212 225 222 224 222 216 211 204 194 201 217 232 234 243 256 248 186 221 250 279 295 294 298 307 304 290 287 276 281 287 286 292
223 219 203 232 217 204 207 218 218 215 225 223 211 220 219 221 218 209 208 199 202 213 223 230 224 240 251 223 192 199 238 258 265 274 284 291 299 310 302 294 305 304 299 298
222 215 213 239 234 209 210 221 215 209 215 222 220 213 211 214 211 204 206 203 210 217 221 222 223 238 241 211 198 204 225 239 249 257 266 277 285 292 307 319 315 314 315 313
222 204 240 236 230 219 211 213 200 206 218 215 213 205 201 208 209 210 217 217 214 212 217 217 224 240 234 201 201 216 228 234 233 241 248 254 257 263 269 286 307 310 318 319
224 214 221 225 217 217 206 189 197 220 221 221 210 203 200 205 216 223 223 207 195 207 218 216 230 245 220 196 204 217 223 231 229 237 243 247 254 259 262 266 275 289 303 313
214 212 216 224 231 228 212 206 212 224 218 216 215 216 213 211 219 223 208 182 187 218 224 221 234 239 203 196 205 216 226 234 226 225 234 239 242 247 255 262 272 281 287 293
195 214 210 219 226 226 218 214 213 216 212 213 216 211 199 196 212 225 222 210 215 228 224 221 234 227 195 197 202 213 218 224 219 220 227 232 236 241 249 255 263 272 276 284
215 219 208 204 210 216 220 215 212 211 213 212 196 184 190 198 215 224 221 210 223 247 243 233 229 204 200 204 205 207 207 212 215 223 231 235 239 241 244 250 258 267 279 291
220 221 220 217 214 209 212 211 209 208 204 188 184 196 205 211 215 215 194 192 212 237 246 229 224 204 212 214 204 199 203 212 223 230 233 239 244 243 243 247 254 259 268 278
219 218 217 219 215 208 211 209 195 195 196 185 187 195 207 215 206 198 195 214 224 225 220 202 207 210 214 215 204 198 202 211 221 229 230 233 239 246 247 251 256 261 264 266
216 212 207 208 213 213 209 199 189 198 195 185 192 203 210 209 196 189 196 233 240 218 213 207 207 212 209 205 199 199 203 211 219 225 228 233 239 245 248 251 255 259 262 266
208 205 206 203 201 214 212 193 190 191 188 193 200 201 200 205 200 205 221 229 232 200 201 210 212 213 209 198 196 201 208 215 223 226 229 231 234 241 246 248 252 256 257 259
202 199 197 195 195 197 190 184 186 187 192 197 200 202 206 209 196 200 235 228 208 209 209 213 218 214 201 189 197 205 212 218 224 226 229 231 233 237 244 248 251 253 257 260
184 180 178 164 148 157 191 206 185 185 191 202 210 208 200 205 226 226 224 204 201 209 214 219 217 208 192 193 202 209 215 221 226 229 231 233 235 238 242 246 252 255 257 260
162 159 155 155 168 191 193 166 154 169 180 210 229 223 213 208 216 224 208 211 211 209 218 221 216 207 197 201 207 214 218 221 223 223 226 230 234 238 241 244 246 251 254 256
161 171 183 187 180 166 160 162 173 184 183 207 245 233 217 214 212 212 209 210 209 207 208 208 205 202 203 208 215 220 223 225 225 227 230 233 237 240 243 246 247 250 253 256
136 140 142 142 158 164 166 171 180 194 195 198 224 225 204 195 185 191 198 201 200 204 209 209 206 204 207 212 222 228 230 230 228 230 232 234 237 240 244 246 250 252 254 257